Starlink 11704

operational
NORAD ID: 64245 Int'l Des: 2025-119 Owner: SPXS Country: US Constellation: starlink
LEOCIRCULAR

Über Starlink 11704

Beschreibung wird geladen...

Live-Position

3D-Globus wird geladen...

Nächste Überflüge

Höhenverlauf

Altitude vs Time

uPlot chart will show altitude changes over time

Zweizeiliger Elementsatz

1 64245U 25119N 25307.96212548 .00240108 00000-0 18221-2 0 9994
2 64245 42.9994 246.7215 0002970 287.9833 72.0711 15.70826055 25470
Epoch: 3. Nov. 2025 • Age: 10 hours

Aktueller Status

Höhe 364.0 km
Geschwindigkeit 7.69 km/s
Subsatellitenpunkt -35.07°S, 8.78°E
Startdatum 3. Juni 2025
Alter 0.4 years
Typ internet

Technische Details

Klassifizierung Payload
Masse 960.00 kg
Trockenmasse 910.00 kg
Gesamtmasse 960.00 kg
Länge 0.30 m
Durchmesser 4.10 m
Spannweite 29.00 m
Form Box + pan
Hersteller SPXS
Bus-Typ Starlink V2MD
Phasenstatus In Orbit
Besitzer/Staat SPXS/US

Große Konstellationen

Loading constellations...